This is the latest recevied weather packets stored in our database for station/object IR4UCA-3. If no packets are shown the sender has not sent any weather packets the latest 1 day(s).
| Time | Temp. | Humidity | Pressure | Rain* | Wind** | Luminosity | Snow |
|---|---|---|---|---|---|---|---|
| 1777975574 | 15.56° C | 90% | 1012.7 hPa | 2.03 mm | 0.89 m/s, 68° | - | - |
| 1777975450 | 15.56° C | 90% | 1012.8 hPa | 2.03 mm | 1.79 m/s, 59° | - | - |
| 1777975331 | 15.56° C | 90% | 1012.7 hPa | 1.78 mm | 1.34 m/s, 42° | - | - |
| 1777975237 | 15.56° C | 90% | 1012.6 hPa | 2.03 mm | 1.34 m/s, 72° | - | - |
| 1777975084 | 15.56° C | 90% | 1012.5 hPa | 1.78 mm | 0.89 m/s, 78° | - | - |
| 1777974966 | 15.56° C | 90% | 1012.7 hPa | 1.52 mm | 1.34 m/s, 83° | - | - |
| 1777974846 | 15.56° C | 90% | 1012.7 hPa | 1.52 mm | 1.34 m/s, 110° | - | - |
| 1777974731 | 15.56° C | 90% | 1012.8 hPa | 1.52 mm | 1.34 m/s, 69° | - | - |
| 1777974606 | 15.56° C | 90% | 1012.7 hPa | 1.27 mm | 1.34 m/s, 135° | - | - |
| 1777974486 | 15.56° C | 90% | 1012.8 hPa | 1.27 mm | 0.89 m/s, 116° | - | - |
| 1777974364 | 15.56° C | 90% | 1012.8 hPa | 1.27 mm | 0.45 m/s, 114° | - | - |
| 1777974248 | 15.56° C | 90% | 1012.8 hPa | 1.27 mm | 0.89 m/s, 142° | - | - |
| 1777974141 | 15.56° C | 90% | 1012.6 hPa | 1.27 mm | 1.79 m/s, 135° | - | - |
| 1777974008 | 15.56° C | 90% | 1012.6 hPa | 1.02 mm | 1.34 m/s, 66° | - | - |
| 1777973880 | 15.56° C | 90% | 1012.6 hPa | 1.02 mm | 1.34 m/s, 66° | - | - |
| 1777973758 | 15.56° C | 90% | 1012.6 hPa | 1.02 mm | 0.89 m/s, 51° | - | - |
| 1777973637 | 15.56° C | 90% | 1012.7 hPa | 1.02 mm | 1.34 m/s, 68° | - | - |
| 1777973525 | 15.56° C | 90% | 1012.7 hPa | 1.02 mm | 1.79 m/s, 66° | - | - |
| 1777973372 | 15.56° C | 90% | 1012.7 hPa | 1.02 mm | 0.45 m/s, 39° | - | - |
| 1777973253 | 15.56° C | 90% | 1012.6 hPa | 1.02 mm | 0.45 m/s, 39° | - | - |
| 1777973134 | 15.56° C | 90% | 1012.5 hPa | 1.02 mm | 0.45 m/s, 39° | - | - |
| 1777973015 | 15.56° C | 90% | 1012.4 hPa | 1.02 mm | 0.45 m/s, 38° | - | - |
| 1777972898 | 15.56° C | 90% | 1012.4 hPa | 0.76 mm | 0.45 m/s, 34° | - | - |
| 1777972769 | 15.56° C | 90% | 1012.4 hPa | 0.76 mm | 0.45 m/s, 32° | - | - |
| 1777972647 | 15.56° C | 90% | 1012.4 hPa | 0.76 mm | 0.45 m/s, 92° | - | - |
* Rain latest hour (hover to see other rain measurements)
** Current wind speed in m/s (hover to see current wind gust speed)